Weather History for Greenville Downtown, SC

Change the Weather History Date:

Tuesday, January 22, 2013

  Actual Average Record
Temperature  
Mean Temperature 38 °F -  
Max Temperature 46 °F 49 °F 62 °F (1999)
Min Temperature 30 °F 32 °F 19 °F (2014)
Degree Days  
Heating Degree Days 27    
Moisture  
Dew Point 11 °F    
Average Humidity 35    
Maximum Humidity 48    
Minimum Humidity 20    
Precipitation  
Precipitation 0.00 in - - ()
Sea Level Pressure  
Sea Level Pressure 30.17 in    
Wind  
Wind Speed 7 mph (North)    
Max Wind Speed 13 mph    
Max Gust Speed 18 mph    
Visibility 10 miles    
Events      
Averages and records for this station are not official NWS values.
T = Trace of Precipitation, MM = Missing Value Source: NWS Daily Summary

Daily Weather History Graph

Daily Weather History Graph

Search for Another Location

Airport:

Trip Planner

Search our weather history database for the weather conditions in past years. The results will help you decide how hot, cold, wet, or windy it might be!

Date:

Astronomy

Jan. 22, 2013 Rise Set
Actual Time 7:33 AM EST 5:48 PM EST
Civil Twilight 7:06 AM EST 6:15 PM EST
Nautical Twilight 6:36 AM EST 6:46 PM EST
Astronomical Twilight 6:06 AM EST 7:16 PM EST
Moon 2:12 PM EST (1/22) 3:52 AM EST (1/22)
Length of Visible Light 11h 08m
Length of Day
10h 14m
Waxing Gibbous, 82% of the Moon is Illuminated
Jan 22
Waxing Gibbous
Jan 26
Full
Feb 3
Last Quarter
Feb 10
New
Feb 17
First Quarter

Hourly Weather History & Observations

Time (EST) Temp. Windchill Dew Point Humidity Pressure Visibility Wind Dir Wind Speed Gust Speed Precip Events Conditions
12:53 AM 41.0 °F 34.7 °F 14.0 °F 33% 30.03 in 10.0 mi West 10.4 mph 18.4 mph N/A   Clear
1:53 AM 41.0 °F 35.8 °F 14.0 °F 33% 30.03 in 10.0 mi WNW 8.1 mph 17.3 mph N/A   Clear
2:53 AM 37.9 °F 32.7 °F 14.0 °F 38% 30.05 in 10.0 mi West 6.9 mph - N/A   Clear
3:53 AM 37.0 °F 31.6 °F 12.9 °F 37% 30.05 in 10.0 mi West 6.9 mph - N/A   Clear
4:53 AM 33.1 °F 27.7 °F 15.1 °F 48% 30.07 in 10.0 mi ENE 5.8 mph - N/A   Clear
5:53 AM 32.0 °F 24.2 °F 12.0 °F 44% 30.10 in 10.0 mi North 9.2 mph - N/A   Clear
6:53 AM 30.0 °F 24.1 °F 12.0 °F 47% 30.13 in 10.0 mi NNE 5.8 mph - N/A   Clear
7:53 AM 30.0 °F 20.0 °F 10.9 °F 45% 30.16 in 10.0 mi North 12.7 mph - N/A   Clear
8:53 AM 33.1 °F 25.5 °F 9.0 °F 37% 30.20 in 10.0 mi NNE 9.2 mph - N/A   Clear
9:53 AM 35.1 °F 30.1 °F 8.1 °F 33% 30.23 in 10.0 mi North 5.8 mph - N/A   Clear
10:53 AM 36.0 °F 31.1 °F 8.1 °F 31% 30.24 in 10.0 mi NNW 5.8 mph - N/A   Clear
11:53 AM 37.9 °F 34.4 °F 9.0 °F 30% 30.24 in 10.0 mi Variable 4.6 mph - N/A   Clear
12:53 PM 41.0 °F 39.0 °F 10.0 °F 28% 30.20 in 10.0 mi East 3.5 mph - N/A   Clear
1:53 PM 44.1 °F 39.5 °F 10.0 °F 25% 30.18 in 10.0 mi SSW 8.1 mph - N/A   Clear
2:53 PM 46.0 °F 44.8 °F 6.1 °F 20% 30.17 in 10.0 mi Variable 3.5 mph - N/A   Clear
3:53 PM 46.0 °F 41.4 °F 12.0 °F 25% 30.16 in 10.0 mi NNE 9.2 mph - N/A   Clear
4:53 PM 46.0 °F 43.1 °F 10.9 °F 24% 30.19 in 10.0 mi NNE 5.8 mph - N/A   Clear
5:53 PM 42.1 °F 39.2 °F 12.9 °F 31% 30.20 in 10.0 mi NE 4.6 mph - N/A   Partly Cloudy
6:53 PM 39.0 °F - 10.0 °F 30% 30.21 in 10.0 mi Calm Calm - N/A   Clear
7:53 PM 37.9 °F - 8.1 °F 29% 30.22 in 10.0 mi Calm Calm - N/A   Clear
8:53 PM 36.0 °F - 9.0 °F 33% 30.24 in 10.0 mi Calm Calm - N/A   Clear
9:53 PM 35.1 °F - 10.9 °F 37% 30.24 in 10.0 mi Calm Calm - N/A   Clear
10:53 PM 33.1 °F 28.7 °F 14.0 °F 46% 30.26 in 10.0 mi West 4.6 mph - N/A   Clear
11:53 PM 32.0 °F - 12.9 °F 45% 30.27 in 10.0 mi Calm Calm - N/A   Clear